Home   Weather   Oberwart   Past weeks

Flag for Austria Past Weather in Oberwart, Burgenland, Austria — Yesterday and Last 2 Weeks

Now
46 °F

Passing clouds.


Feels Like: 46 °F
Forecast: 28 / 43 °F
Wind: 1 mph from South

Location: Eisenstadt

Current Time: Feb 24, 2017 at 7:34:08 am

Latest Report: Feb 24, 2017 at 6:00 am


Visibility: 9 mi

Pressure: 29.56 "Hg

Humidity: 65%

Dew Point: 35 °F

Location of OberwartLocation

Past Weather in Oberwart — Graph

°F

Oberwart Temperature Yesterday

Maximum temperature yesterday: 60 °F (at 12:00 pm)
Minimum temperature yesterday: 47 °F (at 10:00 pm)
Average temperature yesterday: 54 °F

High & Low Weather Summary for the Past Weeks

 TemperatureHumidityPressure
High60 °F (Feb 22, 2:00 pm)99% (Feb 16, 8:00 am)30.63 "Hg (Feb 16, 8:00 am)
Low27 °F (Feb 9, 6:00 am)44% (Feb 24, 4:00 am)29.47 "Hg (Feb 23, 10:00 pm)
Average38 °F79%30.27 "Hg
* Reported Feb 9 6:00 am — Feb 24 6:00 am, Oberwart, Weather by CustomWeather, © 2017

Note: Actual official high and low records may vary slightly from our data, if they occured in-between our weather recording intervals... More about our weather records

Advertising

Oberwart Weather History for the Previous 24 Hours

Scroll right to see more
 ConditionsComfort  
Time TempWeatherWind HumidityBarometerVisibility
6:00 am
Fri, Feb 24
46 °FPassing clouds.1 mph65%29.56 "Hg9 mi
5:00 am51 °FPassing clouds.5 mph49%29.54 "Hg9 mi
4:00 am54 °FPassing clouds.7 mph44%29.50 "Hg9 mi
3:00 am44 °FQuite cool.1 mph71%29.50 "HgN/A
2:00 am47 °FCool.1 mph66%29.50 "HgN/A
1:00 am47 °FPassing clouds.5 mph63%29.50 "Hg9 mi
12:00 am52 °FCool.6 mph52%29.50 "HgN/A
11:00 pm
Thu, Feb 23
49 °FCool.1 mph64%29.50 "HgN/A
10:00 pm47 °FOvercast.2 mph76%29.47 "Hg9 mi
9:00 pm48 °FCool.2 mph73%29.50 "HgN/A
8:00 pm48 °FCool.2 mph72%29.50 "HgN/A
7:00 pm49 °FOvercast.2 mph70%29.55 "Hg9 mi
6:00 pm51 °FCool.2 mph66%29.58 "HgN/A
5:00 pm53 °FCool.2 mph67%29.60 "HgN/A
4:00 pm56 °FOvercast.1 mph62%29.62 "Hg9 mi
3:00 pm56 °FRefreshingly cool.2 mph59%29.66 "HgN/A
2:00 pm55 °FCool.5 mph60%29.70 "HgN/A
1:00 pm60 °FPartly sunny.6 mph56%29.71 "Hg9 mi
12:00 pm60 °FRefreshingly cool.1 mph55%29.73 "HgN/A
11:00 am58 °FCool.2 mph66%29.76 "HgN/A
10:00 am54 °FCool.No wind74%29.77 "HgN/A
9:00 am53 °FCool.2 mph72%29.78 "HgN/A
8:00 am52 °FCool.2 mph74%29.78 "HgN/A
7:00 am53 °FOvercast.6 mph71%29.78 "Hg12 mi
Weather by CustomWeather, © 2017

See weather overviewHow to use our weather pages